Olbia, Italy

10:46 AM CET on November 20, 2017 (GMT +0100)
Costa Smeralda

Weather History for LIEO - October, 2011

Change the Weather History Date:

Wednesday, October 12, 2011

  Actual Average Record
Temperature  
Mean Temperature 67 °F -  
Max Temperature 78 °F 68 °F 84 °F (2000)
Min Temperature 56 °F 51 °F 46 °F (2016)
Cooling Degree Days 2    
Growing Degree Days 17 (Base 50)    
Moisture  
Dew Point 61 °F    
Average Humidity 79    
Maximum Humidity 94    
Minimum Humidity 54    
Precipitation  
Precipitation 0.00 in 0.08 in - ()
Sea Level Pressure  
Sea Level Pressure 30.07 in    
Wind  
Wind Speed 4 mph ()    
Max Wind Speed 13 mph    
Max Gust Speed -    
Visibility 16.0 miles    
Events      
Averages and records for this station are not official NWS values.
T = Trace of Precipitation, MM = Missing Value Source: Averaged Metar Reports

Daily Weather History Graph

Daily Weather History Graph

Search for Another Location

Airport or City:

Trip Planner

Search our weather history database for the weather conditions in past years. The results will help you decide how hot, cold, wet, or windy it might be!

Date:

Astronomy

Oct. 12, 2011 Rise Set
Actual Time 7:29 AM CEST 6:46 PM CEST
Civil Twilight 7:01 AM CEST 7:14 PM CEST
Nautical Twilight 6:30 AM CEST 7:46 PM CEST
Astronomical Twilight 5:58 AM CEST 8:17 PM CEST
Moon 6:39 PM CEST (10/12) 7:49 AM CEST (10/12)
Length of Visible Light 12h 12m
Length of Day
11h 17m
Full, 100% of the Moon is Illuminated
Oct 12
Full
Oct 20
Last Quarter
Oct 26
New
Nov 2
First Quarter
Nov 10
Full

Hourly Weather History & Observations

Time (CEST) Temp. Dew Point Humidity Pressure Visibility Wind Dir Wind Speed Gust Speed Precip Events Conditions
12:20 AM 59.0 °F 55.4 °F 88% 30.09 in - Variable 2.3 mph - N/A   Clear
12:50 AM 60.8 °F 55.4 °F 82% 30.09 in - Variable 3.5 mph - N/A   Clear
1:20 AM 60.8 °F 57.2 °F 88% 30.09 in - SSW 5.8 mph - N/A   Clear
1:50 AM 59.0 °F 55.4 °F 88% 30.09 in - Variable 2.3 mph - N/A   Clear
2:00 AM 59 °F 56 °F 85% 30.09 in 16 mi West 1.2 mph - -  
2:20 AM 59.0 °F 55.4 °F 88% 30.09 in - SSW 2.3 mph - N/A   Clear
2:50 AM 60.8 °F 57.2 °F 88% 30.09 in - Variable 2.3 mph - N/A   Clear
3:20 AM 60.8 °F 59.0 °F 94% 30.06 in - SSW 5.8 mph - N/A   Clear
3:50 AM 62.6 °F 59.0 °F 88% 30.06 in - SSW 4.6 mph - N/A   Clear
4:20 AM 62.6 °F 59.0 °F 88% 30.06 in - SSW 5.8 mph - N/A   Clear
4:50 AM 62.6 °F 59.0 °F 88% 30.06 in - SSW 6.9 mph - N/A   Clear
5:00 AM 62 °F 58 °F 84% 30.06 in 16 mi SW 5.8 mph - -  
5:20 AM 60.8 °F 59.0 °F 94% 30.06 in - SSW 3.5 mph - N/A   Clear
5:50 AM 59.0 °F 57.2 °F 94% 30.06 in - Variable 2.3 mph - N/A   Clear
6:20 AM 59.0 °F 57.2 °F 94% 30.09 in - SSW 3.5 mph - N/A   Clear
6:50 AM 60.8 °F 59.0 °F 94% 30.09 in - South 6.9 mph - N/A   Clear
7:20 AM 59.0 °F 57.2 °F 94% 30.09 in - SSW 4.6 mph - N/A   Clear
7:50 AM 59.0 °F 55.4 °F 88% 30.09 in - South 3.5 mph - N/A   Clear
8:00 AM 58 °F 56 °F 90% 30.09 in 16 mi South 3.5 mph - -  
8:20 AM 59.0 °F 57.2 °F 94% 30.09 in - South 3.5 mph - N/A   Clear
8:50 AM - - N/A% 0.00 in - North - - N/A   Clear
9:20 AM 62.6 °F 59.0 °F 88% 30.09 in - South 3.5 mph - N/A   Clear
9:50 AM 68.0 °F 60.8 °F 78% 30.12 in - Variable 2.3 mph - N/A   Clear
10:20 AM 71.6 °F 60.8 °F 69% 30.12 in - Variable 2.3 mph - N/A   Clear
10:50 AM 73.4 °F 60.8 °F 65% 30.09 in - Variable 2.3 mph - N/A   Clear
11:00 AM 74 °F 61 °F 54% 30.09 in 16 mi NW 3.5 mph - -  
11:20 AM 75.2 °F 60.8 °F 61% 30.09 in - North 4.6 mph - N/A   Clear
11:50 AM 75.2 °F 60.8 °F 61% 30.09 in - NNE 4.6 mph - N/A   Clear
12:20 PM 75.2 °F 62.6 °F 65% 30.09 in - NE 10.4 mph - N/A   Clear
12:50 PM 75.2 °F 62.6 °F 65% 30.09 in - NE 10.4 mph - N/A   Clear
1:20 PM 75.2 °F 64.4 °F 69% 30.06 in - NE 12.7 mph - N/A   Clear
1:50 PM 77.0 °F 64.4 °F 65% 30.06 in - NE 12.7 mph - N/A   Clear
2:00 PM 78 °F 65 °F 56% 30.06 in 16 mi NE 11.5 mph - -  
2:20 PM 78.8 °F 64.4 °F 61% 30.06 in - ENE 11.5 mph - N/A   Clear
2:50 PM 78.8 °F 64.4 °F 61% 30.06 in - ENE 9.2 mph - N/A   Clear
3:20 PM 78.8 °F 64.4 °F 61% 30.06 in - NE 9.2 mph - N/A   Clear
3:50 PM 78.8 °F 66.2 °F 65% 30.04 in - ENE 9.2 mph - N/A   Clear
4:20 PM 77.0 °F 66.2 °F 69% 30.04 in - ENE 6.9 mph - N/A   Clear
4:50 PM 77.0 °F 66.2 °F 69% 30.04 in - ENE 8.1 mph - N/A   Clear
5:00 PM 76 °F 65 °F 61% 30.04 in 16 mi ENE 9.2 mph - -   Clear
5:20 PM 75.2 °F 64.4 °F 69% 30.04 in - ENE 8.1 mph - N/A   Clear
5:50 PM 75.2 °F 64.4 °F 69% 30.04 in - ENE 6.9 mph - N/A   Clear
6:20 PM 73.4 °F 64.4 °F 73% 30.04 in - ENE 5.8 mph - N/A   Clear
6:50 PM 71.6 °F 64.4 °F 78% 30.06 in - ENE 3.5 mph - N/A   Clear
7:20 PM 69.8 °F 62.6 °F 78% 30.06 in - NE 3.5 mph - N/A   Clear
7:50 PM 69.8 °F 64.4 °F 83% 30.06 in - ENE 2.3 mph - N/A   Clear
8:00 PM 69 °F 64 °F 79% 30.06 in 16 mi ENE 2.3 mph - -   Clear
8:20 PM 68.0 °F 64.4 °F 88% 30.06 in - Variable 1.2 mph - N/A   Clear
8:50 PM 68.0 °F 64.4 °F 88% 30.06 in - Variable 2.3 mph - N/A   Clear
9:20 PM 66.2 °F 60.8 °F 83% 30.06 in - Variable 2.3 mph - N/A   Clear
9:50 PM 64.4 °F 62.6 °F 94% 30.06 in - Variable 2.3 mph - N/A   Clear
10:20 PM 64.4 °F 62.6 °F 94% 30.04 in - South 3.5 mph - N/A   Clear
10:50 PM 64.4 °F 60.8 °F 88% 30.04 in - Variable 1.2 mph - N/A   Clear
11:00 PM 64 °F 61 °F 86% 30.04 in 16 mi SSW 2.3 mph - -   Clear
11:20 PM 62.6 °F 59.0 °F 88% 30.04 in - Calm Calm - N/A   Clear
11:50 PM 62.6 °F 60.8 °F 94% 30.04 in - Calm Calm - N/A   Clear